Home > Time Zones > World Clock > Weather > France > Caen > Past weeks

Flag for France Weather past 2 weeks in Caen, France

Now
55 °F

Clear.


Feels Like: 54 °F
Forecast: 57 / 65 °F
Wind: 6 mph from West

Location: Caen Airport

Current Time: Jul 8, 2015 at 12:03:31 AM

Latest Report: Jul 7, 2015 at 11:30 PM


Visibility: 10 mi

Pressure: 29.95 "Hg

Humidity: 82%

Dew point: 50 °F

Location of CaenLocation

Historic Weather in Caen — Graph

°F

Caen temperature yesterday

Maximum temperature yesterday: 73 °F (at 4:30 PM)
Minimum temperature yesterday: 57 °F (at 4:30 AM)
Average temperature yesterday: 64 °F

Past Weeks' High & Low Weather Summary

 TemperatureHumidityPressure
High95 °F (Jul 1, 4:00 PM)100% (Jun 24, 2:00 AM)30.27 "Hg (Jun 24, 2:00 AM)
Low45 °F (Jun 24, 3:00 AM)31% (Jun 30, 4:30 PM)29.83 "Hg (Jul 1, 9:00 AM)
Average66 °F73%30.10 "Hg
* Reported Jun 22 10:00 PM — Jul 7 10:30 PM, Caen, Weather by CustomWeather, © 2015

Note: Actual official high and low records may vary slightly from our data, if they occured in-between our weather recording intervals... More about our weather records

Advertising

Caen weather history for previous 24 hours

 ConditionsComfort  
Time TempWeatherWind HumidityBarometerVisibility
10:30 PM
Tue, Jul 7
59 °FSunny.10 mph72%29.95 "Hg10 mi
10:00 PM59 °FSunny.9 mph72%29.95 "Hg10 mi
9:30 PM61 °FSunny.12 mph63%29.92 "Hg10 mi
9:00 PM63 °FSunny.10 mph64%29.92 "Hg10 mi
8:30 PM64 °FSunny.14 mph60%29.92 "Hg10 mi
8:00 PM66 °FPassing clouds.18 mph52%29.92 "HgN/A
7:30 PM68 °FPartly sunny.17 mph56%29.92 "HgN/A
7:00 PM68 °FPartly sunny.18 mph60%29.92 "HgN/A
6:30 PM70 °FMostly cloudy.17 mph60%29.92 "HgN/A
6:00 PM68 °FMostly cloudy.16 mph64%29.92 "HgN/A
5:30 PM70 °FPartly sunny.20 mph64%29.92 "HgN/A
5:00 PM72 °FPartly sunny.17 mph57%29.89 "HgN/A
4:30 PM73 °FBroken clouds.16 mph53%29.89 "HgN/A
4:00 PM72 °FMostly cloudy.16 mph57%29.89 "HgN/A
3:30 PM70 °FPartly sunny.16 mph64%29.92 "HgN/A
3:00 PM70 °FBroken clouds.18 mph60%29.89 "HgN/A
2:30 PM68 °FPartly sunny.18 mph69%29.92 "HgN/A
2:00 PM68 °FMostly cloudy.20 mph73%29.92 "HgN/A
1:30 PM70 °FMostly cloudy.16 mph78%29.89 "HgN/A
1:00 PM68 °FMostly cloudy.15 mph78%29.89 "HgN/A
12:30 PM68 °FMostly cloudy.12 mph78%29.92 "HgN/A
12:00 PM68 °FBroken clouds.10 mph78%29.92 "HgN/A
11:30 AM68 °FOvercast.12 mph78%29.89 "HgN/A
11:00 AM68 °FMostly cloudy.16 mph78%29.92 "HgN/A
10:30 AM68 °FPartly sunny.12 mph78%29.92 "HgN/A
10:00 AM66 °FPassing clouds.7 mph83%29.89 "HgN/A
9:30 AM64 °FSunny.7 mph88%29.89 "Hg10 mi
9:00 AM64 °FPassing clouds.7 mph83%29.92 "HgN/A
8:30 AM64 °FSunny.7 mph83%29.92 "Hg10 mi
8:00 AM63 °FSunny.7 mph88%29.92 "Hg10 mi
7:30 AM63 °FSunny.7 mph83%29.92 "Hg10 mi
7:00 AM61 °FClear.8 mph83%29.92 "Hg10 mi
6:30 AM59 °FClear.8 mph88%29.92 "Hg10 mi
6:00 AM59 °FClear.9 mph88%29.92 "Hg10 mi
5:30 AM57 °FClear.8 mph94%29.92 "Hg10 mi
5:00 AM59 °FClear.7 mph88%29.92 "Hg10 mi
4:30 AM57 °FClear.2 mph94%29.92 "Hg10 mi
4:00 AM59 °FClear.7 mph88%29.92 "Hg10 mi
3:30 AM59 °FClear.9 mph88%29.95 "Hg10 mi
3:00 AM59 °FClear.9 mph88%29.95 "Hg10 mi
2:30 AM59 °FClear.7 mph88%29.95 "Hg10 mi
2:00 AM59 °FClear.5 mph88%29.98 "Hg10 mi
1:30 AM59 °FClear.6 mph88%29.98 "Hg10 mi
1:00 AM59 °FClear.3 mph88%29.98 "Hg10 mi
12:30 AM61 °FClear.No wind83%30.01 "Hg10 mi
12:00 AM61 °FClear.2 mph83%30.01 "Hg10 mi
Weather by CustomWeather, © 2015

See weather overviewHow to use our weather pages